Princeton, MN

7:24 PM CDT on April 24, 2017 (GMT -0500)
Princeton Municipal

Weather History for KPNM - March, 2013

Change the Weather History Date:

Friday, March 1, 2013

  Actual Average Record
Temperature  
Mean Temperature 19 °F -  
Max Temperature 26 °F 28 °F 44 °F (1999)
Min Temperature 10 °F 12 °F -13 °F (2002)
Degree Days  
Heating Degree Days 46    
Moisture  
Dew Point 12 °F    
Average Humidity 70    
Maximum Humidity 80    
Minimum Humidity 59    
Precipitation  
Precipitation 0.00 in - - ()
Sea Level Pressure  
Sea Level Pressure 30.32 in    
Wind  
Wind Speed 7 mph (NNE)    
Max Wind Speed 13 mph    
Max Gust Speed 17 mph    
Visibility 10 miles    
Events Snow    
Averages and records for this station are not official NWS values.
T = Trace of Precipitation, MM = Missing Value Source: NWS Daily Summary

Daily Weather History Graph

Daily Weather History Graph

Search for Another Location

Airport or City:

Trip Planner

Search our weather history database for the weather conditions in past years. The results will help you decide how hot, cold, wet, or windy it might be!

Date:

Astronomy

Mar. 01, 2013 Rise Set
Actual Time 6:52 AM CST 6:01 PM CST
Civil Twilight 6:22 AM CST 6:31 PM CST
Nautical Twilight 5:48 AM CST 7:05 PM CST
Astronomical Twilight 5:13 AM CST 7:40 PM CST
Moon 10:52 PM CST (3/1) 8:24 AM CST (3/1)
Length of Visible Light 12h 08m
Length of Day
11h 09m
Waning Gibbous, 83% of the Moon is Illuminated
Mar 1
Waning Gibbous
Mar 4
Last Quarter
Mar 11
New
Mar 19
First Quarter
Mar 27
Full

Hourly Weather History & Observations

Time (CST) Temp. Windchill Dew Point Humidity Pressure Visibility Wind Dir Wind Speed Gust Speed Precip Events Conditions
12:11 AM 19.4 °F 9.5 °F 12.2 °F 74% 30.23 in 10.0 mi NE 8.1 mph - N/A   Mostly Cloudy
12:31 AM 19.4 °F 10.4 °F 12.2 °F 74% 30.23 in 10.0 mi NNE 6.9 mph - N/A   Overcast
12:51 AM 19.4 °F 12.8 °F 12.2 °F 74% 30.23 in 10.0 mi NNE 4.6 mph - N/A   Mostly Cloudy
1:11 AM 17.6 °F 10.7 °F 12.2 °F 79% 30.24 in 10.0 mi North 4.6 mph - N/A   Overcast
1:31 AM 19.4 °F 14.3 °F 12.2 °F 74% 30.24 in 10.0 mi North 3.5 mph - N/A   Overcast
2:11 AM 17.6 °F 9.3 °F 12.2 °F 79% 30.25 in 10.0 mi North 5.8 mph - N/A   Overcast
2:31 AM 17.6 °F 12.3 °F 12.2 °F 79% 30.25 in 10.0 mi North 3.5 mph - N/A   Overcast
2:52 AM 19.4 °F 12.8 °F 12.2 °F 74% 30.26 in 10.0 mi North 4.6 mph - N/A   Overcast
3:11 AM 19.4 °F 11.5 °F 12.2 °F 74% 30.26 in 10.0 mi North 5.8 mph - N/A   Overcast
3:52 AM 19.4 °F 11.5 °F 12.2 °F 74% 30.26 in 10.0 mi North 5.8 mph - N/A   Overcast
4:11 AM 19.4 °F 11.5 °F 12.2 °F 74% 30.26 in 10.0 mi North 5.8 mph - N/A   Overcast
4:31 AM 19.4 °F 11.5 °F 12.2 °F 74% 30.27 in 10.0 mi North 5.8 mph - N/A   Overcast
4:52 AM 19.4 °F 11.5 °F 12.2 °F 74% 30.28 in 10.0 mi North 5.8 mph - N/A   Overcast
5:11 AM 19.4 °F 11.5 °F 12.2 °F 74% 30.29 in 10.0 mi NNW 5.8 mph - N/A   Overcast
5:31 AM 19.4 °F 11.5 °F 12.2 °F 74% 30.29 in 10.0 mi North 5.8 mph - N/A   Overcast
5:52 AM 19.4 °F 11.5 °F 12.2 °F 74% 30.29 in 10.0 mi North 5.8 mph - N/A   Overcast
6:11 AM 19.4 °F 14.3 °F 12.2 °F 74% 30.30 in 10.0 mi North 3.5 mph - N/A   Overcast
6:31 AM 19.4 °F 12.8 °F 12.2 °F 74% 30.30 in 10.0 mi North 4.6 mph - N/A Snow Light Snow
6:51 AM 19.4 °F 11.5 °F 14.0 °F 80% 30.31 in 10.0 mi North 5.8 mph - N/A   Overcast
7:11 AM 19.4 °F 12.8 °F 14.0 °F 80% 30.31 in 10.0 mi NNE 4.6 mph - N/A   Overcast
7:31 AM 19.4 °F 10.4 °F 14.0 °F 80% 30.31 in 10.0 mi North 6.9 mph - N/A   Overcast
7:51 AM 21.2 °F 13.6 °F 14.0 °F 74% 30.32 in 10.0 mi North 5.8 mph - N/A   Overcast
8:11 AM 21.2 °F 12.6 °F 14.0 °F 74% 30.32 in 10.0 mi North 6.9 mph - N/A   Overcast
8:31 AM 21.2 °F 11.7 °F 14.0 °F 74% 30.33 in 10.0 mi NNE 8.1 mph - N/A   Overcast
8:51 AM 21.2 °F 11.7 °F 14.0 °F 74% 30.33 in 10.0 mi NNE 8.1 mph - N/A   Overcast
9:11 AM 21.2 °F 9.5 °F 14.0 °F 74% 30.33 in 10.0 mi North 11.5 mph - N/A   Overcast
9:31 AM 21.2 °F 8.9 °F 14.0 °F 74% 30.33 in 10.0 mi North 12.7 mph - N/A   Overcast
9:51 AM 21.2 °F 10.1 °F 14.0 °F 74% 30.34 in 10.0 mi NE 10.4 mph - N/A   Overcast
10:11 AM 21.2 °F 10.9 °F 14.0 °F 74% 30.34 in 10.0 mi NE 9.2 mph - N/A   Overcast
10:31 AM 23.0 °F 13.9 °F 14.0 °F 68% 30.34 in 10.0 mi NE 8.1 mph - N/A   Overcast
10:51 AM 24.8 °F 17.9 °F 14.0 °F 64% 30.34 in 10.0 mi NE 5.8 mph - N/A   Overcast
11:11 AM 23.0 °F 13.9 °F 12.2 °F 63% 30.34 in 10.0 mi NNE 8.1 mph - N/A   Mostly Cloudy
11:31 AM 24.8 °F 15.3 °F 14.0 °F 64% 30.34 in 10.0 mi NNE 9.2 mph 17.3 mph N/A   Overcast
11:51 AM 24.8 °F 15.3 °F 14.0 °F 64% 30.34 in 10.0 mi North 9.2 mph - N/A   Overcast
12:11 PM 24.8 °F 14.6 °F 15.8 °F 69% 30.34 in 10.0 mi North 10.4 mph 16.1 mph N/A   Overcast
12:31 PM 24.8 °F 16.9 °F 15.8 °F 69% 30.34 in 10.0 mi NNE 6.9 mph - N/A   Mostly Cloudy
12:51 PM 26.6 °F 16.8 °F 15.8 °F 64% 30.34 in 10.0 mi North 10.4 mph - N/A   Mostly Cloudy
1:11 PM 26.6 °F 20.0 °F 14.0 °F 59% 30.33 in 10.0 mi NNE 5.8 mph 9.2 mph N/A   Mostly Cloudy
1:31 PM 26.6 °F 16.8 °F 15.8 °F 64% 30.33 in 10.0 mi North 10.4 mph - N/A   Mostly Cloudy
1:51 PM 26.6 °F 16.2 °F 15.8 °F 64% 30.32 in 10.0 mi NNE 11.5 mph 16.1 mph N/A   Mostly Cloudy
2:11 PM 26.6 °F 20.0 °F 15.8 °F 64% 30.32 in 10.0 mi North 5.8 mph - N/A   Scattered Clouds
2:32 PM 26.6 °F 16.8 °F 15.8 °F 64% 30.32 in 10.0 mi NNE 10.4 mph - N/A   Scattered Clouds
2:51 PM 26.6 °F 16.2 °F 15.8 °F 64% 30.32 in 10.0 mi North 11.5 mph - N/A   Scattered Clouds
3:11 PM 26.6 °F 17.5 °F 15.8 °F 64% 30.32 in 10.0 mi NNE 9.2 mph - N/A   Clear
3:32 PM 26.6 °F 19.1 °F 14.0 °F 59% 30.32 in 10.0 mi NNE 6.9 mph - N/A   Clear
3:51 PM 26.6 °F 16.2 °F 14.0 °F 59% 30.32 in 10.0 mi North 11.5 mph - N/A   Clear
4:11 PM 26.6 °F 16.8 °F 14.0 °F 59% 30.32 in 10.0 mi North 10.4 mph - N/A   Clear
4:32 PM 26.6 °F 17.5 °F 14.0 °F 59% 30.32 in 10.0 mi NNE 9.2 mph - N/A   Clear
4:51 PM 24.8 °F 16.1 °F 12.2 °F 59% 30.33 in 10.0 mi NNE 8.1 mph - N/A   Clear
5:11 PM 24.8 °F 15.3 °F 12.2 °F 59% 30.33 in 10.0 mi NNE 9.2 mph - N/A   Clear
6:11 PM 21.2 °F 10.9 °F 12.2 °F 68% 30.34 in 10.0 mi NNE 9.2 mph - N/A   Clear
6:32 PM 21.2 °F 12.6 °F 12.2 °F 68% 30.35 in 10.0 mi North 6.9 mph - N/A   Clear
6:51 PM 21.2 °F 11.7 °F 12.2 °F 68% 30.35 in 10.0 mi NNE 8.1 mph - N/A   Clear
7:11 PM 19.4 °F 11.5 °F 12.2 °F 74% 30.35 in 10.0 mi North 5.8 mph - N/A   Clear
7:32 PM 19.4 °F 10.4 °F 10.4 °F 68% 30.35 in 10.0 mi North 6.9 mph - N/A   Clear
7:51 PM 17.6 °F 9.3 °F 10.4 °F 73% 30.35 in 10.0 mi North 5.8 mph - N/A   Clear
8:11 PM 17.6 °F 7.3 °F 8.6 °F 68% 30.35 in 10.0 mi NNE 8.1 mph - N/A   Clear
8:31 PM 17.6 °F 10.7 °F 8.6 °F 68% 30.34 in 10.0 mi NNE 4.6 mph - N/A   Clear
8:51 PM 15.8 °F 8.6 °F 6.8 °F 68% 30.35 in 10.0 mi NNE 4.6 mph - N/A   Clear
9:12 PM 15.8 °F 6.1 °F 6.8 °F 68% 30.35 in 10.0 mi North 6.9 mph - N/A   Clear
9:31 PM 15.8 °F 8.6 °F 6.8 °F 68% 30.35 in 10.0 mi NNE 4.6 mph - N/A   Clear
9:51 PM 15.8 °F 8.6 °F 6.8 °F 68% 30.35 in 10.0 mi NNE 4.6 mph - N/A   Clear
10:12 PM 14.0 °F 6.5 °F 6.8 °F 73% 30.35 in 10.0 mi NNE 4.6 mph - N/A   Clear
10:51 PM 12.2 °F 6.1 °F 6.8 °F 79% 30.35 in 10.0 mi NNE 3.5 mph - N/A   Clear
11:12 PM 12.2 °F 6.1 °F 5.0 °F 73% 30.35 in 10.0 mi NNE 3.5 mph - N/A   Clear
11:31 PM 12.2 °F 6.1 °F 6.8 °F 79% 30.34 in 10.0 mi NNE 3.5 mph - N/A   Clear
11:51 PM 10.4 °F 4.0 °F 5.0 °F 79% 30.34 in 7.0 mi NNW 3.5 mph - N/A   Clear